Погода в Освенциме

Польша     50°02′03″N   19°15′37″E
темп.,
°C
ветер,
м/с
пор.,
м/с
влажн.,
%
обл.,
%
осадки,
мм/ч
давл.,
гПа
погр.,
м
1 марта, пн
пн101:00+3ссз258571 0.0 1033275
04:00+2сз1286100 0.0 1034146
07:00+2сз2387100 0.0 1034163
10:00+4сз228194 0.0 1035401
13:00+6с226993 0.0 1036710
16:00+6в116649 0.0 1035576
19:00+3вюв118025 0.0 103624
22:00+2ююв11850 0.0 103622
2 марта, вт
вт201:00+1юз11850 0.0 103622
04:00+1юз12820 0.0 103522
07:00+1юз22750 0.0 103526
10:00+7з36560 0.0 1034360
13:00+10з46520 0.0 1033551
16:00+10з36560 0.0 1032402
19:00+6зюз34700 0.0 103368
22:00+4зюз22730 0.0 103422
3 марта, ср
ср301:00+3юз11770 0.0 103322
04:00+2юз11790 0.0 103222
07:00+2юз11780 0.0 103222
10:00+7вюв11590 0.0 1031227
13:00+11ссв01470 0.0 1029398
16:00+11с01500 0.0 1026175
19:00+7юз12630 0.0 102624
22:00+5юз247466 0.0 1024103
4 марта, чт
чт401:00+4ююз237640 0.0 102353
04:00+3юз35770 0.0 1021142
07:00+3юз36782 0.0 1019164
10:00+9зюз486036 0.0 1017506
13:00+12з585337 0.0 1016834
16:00+11з595851 0.0 1013766
19:00+8зюз397269 0.0 1013296
22:00+7зюз2380100 0.0 101267
5 марта, пт
пт501:00+6з2281100 0.1 101091
04:00+6зюз1288100 0.4 100997
07:00+5зюз1393100 2.6 1008193
10:00+5с3695100 4.5 1009424
13:00+3зсз3595100 8.5 1011359
16:00+1ссз4795100 2.5 1014423
19:00−1с5982100 4.1 1018874
22:000с2663100 0.2 1022545